Location: Dimsdale
(55.1333°N, 118.9833°W)
Time: 00:25:23
(UTC+00:00)

SO-50 - Pass Details

Date: 08 December 2023
Orbit: 608 x 660 km, 64.6° (Epoch: 02 March)

Event Time Altitude Azimuth Distance (km) Brightness Sun altitude
Exits shadow 12:31:54 28° 29° (NNE) 1,202 ? -29.2°
Drops below altitude 10° 12:34:18 10° 44° (NE) 2,039 ? -28.9°
Sets 12:36:38 0° 50° (NE) 2,941 ? -28.5°
